190P/Mueller (2007)

Japanese version
Home page
Updated on April 6, 2008

---------------------------------------------------------------------

* Profile

Designation 190P/2007 O2
Recovery Date July 26, 2007
Magnitude 19.5 mag
Recoverer L. Buzzi and F. Luppi (Varese, Italy)

* Pictures

* Orbital Elements

                    Epoch = 2007 June 29.0 TT
     T = 2007 July  8.20087 TT        Peri. =  49.73116
     e = 0.5206516                    Node  = 336.11998 2000.0
     q = 2.0319152 AU                 Incl. =   2.18993
       a =  4.2389107 AU   n = 0.11293347   P =   8.73 years

* Magnitudes Graph

        m1 = 10.0 + 5 log d + 20.0 log r

---------------------------------------------------------------------

The orbital elements are printed on IAUC 8859.
The magnitudes graphs are made with Comet for Windows.

---------------------------------------------------------------------

Copyright(C) Seiichi Yoshida (comet@aerith.net). All rights reserved.